TimeCST,TemperatureF,Dew PointF,Humidity,Sea Level PressureIn,VisibilityMPH,Wind Direction,Wind SpeedMPH,Gust SpeedMPH,PrecipitationIn,Events,Conditions,WindDirDegrees,DateUTC
12:54 AM,41.0,36.0,82,30.08,6.0,Calm,Calm,-,N/A,,Haze,0,2012-11-20 06:54:00
1:54 AM,39.9,36.0,86,30.09,5.0,Calm,Calm,-,N/A,,Mostly Cloudy,0,2012-11-20 07:54:00
2:54 AM,39.0,36.0,89,30.08,5.0,Calm,Calm,-,N/A,,Mostly Cloudy,0,2012-11-20 08:54:00
3:54 AM,37.0,35.1,93,30.08,4.0,Calm,Calm,-,N/A,,Clear,0,2012-11-20 09:54:00
4:54 AM,36.0,35.1,97,30.09,3.0,Calm,Calm,-,N/A,,Clear,0,2012-11-20 10:54:00
5:54 AM,35.1,34.0,96,30.12,3.0,NW,4.6,-,N/A,,Clear,320,2012-11-20 11:54:00
6:54 AM,35.1,34.0,96,30.12,3.0,NNW,3.5,-,N/A,,Clear,330,2012-11-20 12:54:00
7:11 AM,33.8,33.8,100,30.08,2.0,NNW,3.5,-,N/A,,Clear,330,2012-11-20 13:11:00
7:31 AM,33.8,32.0,93,30.08,1.8,Calm,Calm,-,N/A,,Clear,0,2012-11-20 13:31:00
7:54 AM,35.1,33.1,92,30.12,1.8,Calm,Calm,-,N/A,,Clear,0,2012-11-20 13:54:00
8:09 AM,35.6,33.8,93,30.08,2.0,Calm,Calm,-,N/A,,Clear,0,2012-11-20 14:09:00
8:51 AM,39.2,35.6,87,30.07,3.0,Calm,Calm,-,N/A,,Clear,0,2012-11-20 14:51:00
8:54 AM,39.9,36.0,86,30.11,3.0,Calm,Calm,-,N/A,,Clear,0,2012-11-20 14:54:00
9:54 AM,45.0,37.9,76,30.14,4.0,WNW,3.5,-,N/A,,Haze,300,2012-11-20 15:54:00
10:54 AM,50.0,39.0,66,30.13,6.0,Calm,Calm,-,N/A,,Haze,0,2012-11-20 16:54:00
11:54 AM,54.0,39.0,57,30.10,8.0,Calm,Calm,-,N/A,,Clear,0,2012-11-20 17:54:00
1:54 PM,55.9,39.0,53,30.10,10.0,WNW,6.9,-,N/A,,Clear,290,2012-11-20 19:54:00
2:54 PM,55.9,39.0,53,30.10,10.0,West,4.6,-,N/A,,Clear,270,2012-11-20 20:54:00
3:54 PM,53.1,39.0,59,30.11,9.0,WSW,4.6,-,N/A,,Clear,240,2012-11-20 21:54:00
4:54 PM,50.0,37.9,63,30.13,10.0,West,3.5,-,N/A,,Clear,280,2012-11-20 22:54:00
5:54 PM,46.0,37.9,73,30.14,10.0,Calm,Calm,-,N/A,,Clear,0,2012-11-20 23:54:00
6:54 PM,43.0,37.0,80,30.15,9.0,Calm,Calm,-,N/A,,Clear,0,2012-11-21 00:54:00
7:54 PM,37.9,35.1,89,30.15,7.0,Calm,Calm,-,N/A,,Clear,0,2012-11-21 01:54:00
8:54 PM,37.0,35.1,93,30.14,5.0,Calm,Calm,-,N/A,,Clear,0,2012-11-21 02:54:00
9:50 PM,35.6,33.8,93,30.11,1.8,Calm,Calm,-,N/A,,Clear,0,2012-11-21 03:50:00
9:54 PM,36.0,34.0,93,30.15,1.0,Calm,Calm,-,N/A,,Clear,0,2012-11-21 03:54:00
10:01 PM,35.6,33.8,93,30.11,0.5,Calm,Calm,-,N/A,Fog,Fog,0,2012-11-21 04:01:00
10:10 PM,35.6,33.8,93,30.11,2.0,Calm,Calm,-,N/A,,Clear,0,2012-11-21 04:10:00
10:19 PM,35.6,33.8,93,30.11,3.0,Calm,Calm,-,N/A,,Clear,0,2012-11-21 04:19:00
10:33 PM,35.6,33.8,93,30.11,2.5,West,3.5,-,N/A,,Clear,280,2012-11-21 04:33:00
10:42 PM,35.6,33.8,93,30.11,0.8,Calm,Calm,-,N/A,,Clear,0,2012-11-21 04:42:00
10:54 PM,34.0,32.0,92,30.15,2.5,Calm,Calm,-,N/A,,Clear,0,2012-11-21 04:54:00
11:09 PM,33.8,33.8,100,30.11,1.0,Calm,Calm,-,N/A,,Mist,0,2012-11-21 05:09:00
11:16 PM,33.8,32.0,93,30.11,0.5,Calm,Calm,-,N/A,Fog,Fog,0,2012-11-21 05:16:00
11:22 PM,33.8,32.0,93,30.11,1.5,Calm,Calm,-,N/A,,Clear,0,2012-11-21 05:22:00
11:24 PM,33.8,32.0,93,30.11,3.0,Calm,Calm,-,N/A,,Clear,0,2012-11-21 05:24:00
11:51 PM,33.8,32.0,93,30.11,2.5,Calm,Calm,-,N/A,,Clear,0,2012-11-21 05:51:00
11:54 PM,33.1,32.0,96,30.14,2.5,Calm,Calm,-,N/A,,Clear,0,2012-11-21 05:54:00